This demonstration page uses our WeatherBlox Daily Observations layout. Learn more.

Left ArrowRight Arrow

Hourly Observations for January 5, 2016

Temp ( °F °C ) Dew Point ( °F °C ) Humidity (%) Winds ( mph kmh ) Pressure ( in mb ) Visibility ( mi km ) Precip ( " mm )
12:53 am 00:53 Cloudy with Mist and Fog 20 -6.7 18 -7.8 92 92 S 14 22 30.29 1026 6 10 0.00 0.00
1:53 am 01:53 Cloudy with Mist and Fog 20 -6.7 18 -7.8 92 92 S 14 22 30.27 1025 6 10 0.00 0.00
2:53 am 02:53 Cloudy with Mist and Fog 21 -6.1 19 -7.2 92 92 S 15 24 30.24 1024 3 5 0.00 0.00
3:53 am 03:53 Cloudy with Mist and Fog 23 -5 20 -6.7 88 88 S 17 28 30.24 1024 4 6 0.00 0.00
4:53 am 04:53 Cloudy with Mist and Fog 23 -5 20 -6.7 88 88 S 17 28 30.21 1023 4 6 0.00 0.00
5:53 am 05:53 Cloudy with Mist and Fog 23 -5 21 -6.1 92 92 S 15 24 30.21 1023 5 8 0.00 0.00
6:53 am 06:53 Cloudy with Mist and Fog 23 -5 20 -6.7 88 88 S 12 19 30.20 1023 5 8 0.00 0.00
7:53 am 07:53 Cloudy with Mist and Fog 22 -5.6 20 -6.7 92 92 S 12 19 30.19 1023 5 8 0.00 0.00
8:10 am 08:10 Cloudy with Mist and Fog 21 -6 19 -7 93 93 S 13 20 30.24 1024 5 8 0.00 0.00
8:53 am 08:53 Mostly Cloudy with Mist and Fog 22 -5.6 20 -6.7 92 92 S 8 13 30.19 1023 5 8 0.00 0.00
9:12 am 09:12 Partly Cloudy with Mist and Fog 23 -5 19 -7 86 86 S 9 15 30.24 1024 5 8 0.00 0.00
9:53 am 09:53 Sunny 26 -3.3 21 -6.1 81 81 S 13 20 30.18 1022 7 11 0.00 0.00
10:53 am 10:53 Sunny 29 -1.7 22 -5.6 75 75 S 15 24 30.16 1021 9 14 0.00 0.00
11:53 am 11:53 Sunny 33 0.6 24 -4.4 70 70 S 15 24 30.12 1020 10 16 0.00 0.00
12:53 pm 12:53 Sunny 33 0.6 25 -3.9 72 72 S 10 17 30.08 1019 10 16 0.00 0.00
1:53 pm 13:53 Sunny 38 3.3 26 -3.3 62 62 S 9 15 30.05 1018 10 16 0.00 0.00
2:53 pm 14:53 Sunny 40 4.4 28 -2.2 63 63 S 12 19 30.03 1017 10 16 0.00 0.00
3:53 pm 15:53 Sunny 42 5.6 28 -2.2 58 58 S 13 20 30.01 1016 10 16 0.00 0.00
4:53 pm 16:53 Sunny 39 3.9 28 -2.2 65 65 S 10 17 30.01 1016 10 16 0.00 0.00
5:53 pm 17:53 Clear 37 2.8 28 -2.2 70 70 S 10 17 30.03 1017 10 16 0.00 0.00
6:53 pm 18:53 Clear 37 2.8 27 -2.8 67 67 S 12 19 30.03 1017 10 16 0.00 0.00
7:53 pm 19:53 Clear 35 1.7 28 -2.2 76 76 S 15 24 30.04 1017 10 16 0.00 0.00
8:53 pm 20:53 Mostly Cloudy 35 1.7 28 -2.2 76 76 S 12 19 30.04 1017 10 16 0.00 0.00
9:53 pm 21:53 Mostly Clear 34 1.1 28 -2.2 79 79 S 14 22 30.04 1017 10 16 0.00 0.00
10:53 pm 22:53 Cloudy 34 1.1 28 -2.2 79 79 S 14 22 30.04 1017 10 16 0.00 0.00
11:43 pm 23:43 Cloudy with Light Wintry Mix 34 1.1 29 -1.7 82 82 S 13 20 30.06 1018 7 11 0.00 0.03
11:49 pm 23:49 Cloudy with Light Snow 34 1 30 -1 87 87 S 14 22 30.06 1018 4 6 0.00 0.03
11:53 pm 23:53 Cloudy with Light Snow 34 1.1 30 -1.1 85 85 S 13 20 30.02 1017 4 6 0.00 0.03

Powered by AerisWeather